Location: Demmingen
(48.6757°N, 10.4375°E)
Time: 21:52:03
(UTC+00:00)

Cosmos 1300 - Pass Details

Date: 23 May 2024
Orbit: 465 x 468 km, 82.5° (Epoch: 14 June)

Event Time Altitude Azimuth Distance (km) Brightness Sun altitude
Rises 00:55:54 0° 334° (NNW) 2,515 6.8 -17.1°
Reaches altitude 10° 00:58:35 10° 312° (NW) 1,631 5.4 -16.9°
Maximum altitude 01:00:48 16° 273° (W) 1,303 4.5 -16.8°
Enters shadow 01:00:56 16° 271° (W) 1,304 4.5 -16.8°
